Location: McFarlands Corners
(41.4117°N, 81.3382°W)
Time: 13:17:51
(UTC+00:00)

Explorer 7 - Pass Details

Date: 24 February 2026
Orbit: 430 x 541 km, 50.2° (Epoch: 12 March)

Event Time Altitude Azimuth Distance (km) Brightness Sun altitude
Rises 16:55:44 0° 210° (SSW) 2,380 10.6 38.4°
Reaches altitude 10° 16:57:59 10° 199° (SSW) 1,519 10.0 38.5°
Maximum altitude 17:00:58 29° 138° (SE) 824 9.1 38.6°
Drops below altitude 10° 17:04:01 10° 76° (ENE) 1,547 9.2 38.7°
Sets 17:06:20 0° 65° (ENE) 2,434 10.0 38.8°
